Theta_e
321 321 321 321 321 318 315 312 311 310 308 307 305 305 309 310 309 311 317 314 317 319 323 321 322 321 321 322 321 319 323 320 321 321 321 319 319 319 319 318 318 319 320 324 330
322 322 321 320 320 319 318 315 314 313 312 311 308 305 310 311 312 317 311 317 320 320 322 320 320 320 319 322 321 320 319 321 321 319 319 319 318 319 320 319 319 317 318 323 327
322 321 321 320 319 319 318 318 318 317 315 313 309 306 312 311 321 321 321 317 319 319 318 321 320 319 320 321 322 321 322 322 323 321 320 319 319 318 317 317 317 320 319 318 319
312 310 310 311 312 313 316 317 318 318 318 316 309 308 312 314 313 321 320 316 319 317 322 321 318 319 319 320 319 321 321 322 321 320 320 320 320 320 319 317 317 317 317 318 318
304 303 303 303 304 305 307 311 315 317 318 318 309 311 314 320 315 315 318 317 318 318 322 320 318 317 319 319 320 319 319 320 319 319 319 320 320 320 320 318 317 318 318 318 317
306 304 303 303 302 302 302 303 309 314 317 317 308 313 315 310 312 320 319 318 317 319 321 321 317 317 318 318 319 318 319 319 319 320 319 320 319 319 319 317 318 319 318 317 317
306 305 304 304 303 302 302 302 307 312 316 314 309 315 320 312 314 321 317 316 317 319 319 319 318 316 316 317 318 320 320 318 318 318 319 319 320 320 319 318 317 317 317 317 317
309 306 304 303 302 301 302 314 316 315 315 310 313 318 314 311 314 318 318 317 318 318 320 320 317 316 317 316 317 320 319 320 318 319 319 319 320 318 316 316 315 313 315 317 317
308 305 304 301 299 301 316 313 314 314 312 313 314 319 317 317 317 316 318 320 317 320 320 319 318 316 317 316 317 317 318 318 319 318 319 319 319 318 316 315 316 313 314 315 318
305 304 302 299 298 309 313 314 316 315 319 320 321 317 315 317 317 317 318 321 320 318 319 319 316 318 315 316 318 318 319 318 318 318 319 319 317 315 315 315 316 315 314 315 319
305 304 302 300 301 308 314 313 312 313 314 318 318 317 316 318 318 315 317 320 318 317 319 319 319 319 319 316 317 318 318 318 316 317 317 317 317 316 315 313 311 313 312 319 320
305 304 305 304 308 307 313 314 308 309 315 316 315 314 314 316 318 315 318 320 318 319 317 319 321 318 318 318 319 319 319 319 317 317 315 315 314 313 312 312 311 311 314 320 320
306 306 306 304 309 300 306 303 303 303 315 317 316 316 316 314 315 317 316 319 320 318 318 319 320 320 320 320 321 320 319 317 318 317 315 315 315 314 314 316 316 314 318 320 320
307 306 306 305 300 301 306 303 302 305 316 316 320 318 314 313 314 316 316 319 317 321 318 318 319 320 320 321 320 322 318 319 320 316 317 313 316 312 312 321 321 321 321 320 320
308 307 307 306 304 303 303 301 303 312 308 312 317 315 313 314 314 315 316 317 321 318 318 320 319 319 321 320 318 320 317 318 317 316 316 315 315 313 314 322 319 320 320 319 319
305 305 307 306 305 303 304 304 309 317 310 314 316 315 313 313 314 316 316 316 318 318 317 318 318 318 318 319 318 318 317 315 315 315 318 316 316 313 313 319 319 320 321 320 319
305 303 303 306 305 305 305 304 316 320 310 313 317 315 316 315 314 314 316 317 319 321 320 319 319 317 317 318 317 316 316 317 319 318 319 316 315 314 314 317 321 322 322 320 319
305 304 303 302 302 305 305 313 319 309 314 311 309 310 314 316 315 314 314 315 314 317 318 320 319 317 317 318 317 315 315 317 317 320 320 318 322 322 319 317 319 323 322 320 319
303 303 304 302 301 305 301 310 314 312 308 306 308 314 314 311 312 315 313 314 314 315 319 319 319 316 317 316 317 315 316 315 317 317 316 317 316 316 320 323 324 323 322 321 319
302 303 303 304 304 304 302 301 304 305 301 302 304 308 315 308 312 314 314 314 316 315 315 316 320 317 317 315 315 315 314 318 315 320 321 317 317 317 323 324 324 324 323 321 319
302 300 301 304 305 302 306 302 302 301 302 302 304 304 304 304 305 311 315 315 314 315 314 315 317 317 314 316 316 315 316 315 315 316 319 320 318 313 319 322 325 324 322 321 319
301 300 302 301 303 306 306 305 305 304 304 303 303 303 303 303 303 304 308 313 312 313 313 314 316 319 319 314 314 316 317 314 316 316 315 314 317 313 315 320 323 323 322 320 319
301 301 300 300 301 297 301 304 305 306 305 304 304 304 303 303 305 304 307 311 312 312 314 314 316 318 319 316 314 314 313 314 313 313 314 315 315 315 316 318 321 322 321 320 319
297 301 300 298 298 299 300 300 301 303 304 305 306 305 305 304 305 307 308 308 308 312 314 312 316 316 319 317 315 314 314 314 314 317 317 316 316 318 318 319 318 321 321 320 319
296 295 299 300 298 300 300 301 302 302 302 303 305 305 306 305 305 305 303 305 308 311 312 312 313 315 315 315 315 315 316 315 315 315 316 317 316 316 315 316 317 319 320 320 319
292 296 297 298 297 298 300 303 302 301 301 301 303 304 304 306 303 304 302 304 305 309 311 313 311 311 312 313 315 318 317 316 315 315 315 315 314 314 314 312 316 320 321 321 319
296 297 297 298 297 299 299 299 299 300 300 301 302 302 303 302 303 302 299 301 305 306 307 307 309 310 306 311 314 319 318 316 315 314 315 315 315 314 313 313 317 320 322 321 319
Wind_Speed
19 20 20 20 20 21 20 19 19 19 19 19 20 20 17 16 14 7 6 8 8 11 9 7 3 5 2 1 0 3 3 2 3 1 1 4 2 2 1 5 1 1 7 8 16
15 16 18 19 21 22 22 21 21 21 20 21 21 21 16 14 14 11 15 10 10 13 10 9 5 3 3 2 2 3 3 6 3 2 2 3 3 4 3 3 2 2 4 9 12
16 17 18 20 21 21 22 22 22 23 23 23 22 19 14 11 4 6 4 17 12 15 11 10 4 5 3 2 2 3 4 3 3 2 5 3 4 2 5 2 7 4 7 7 7
18 20 21 21 21 22 22 22 23 23 23 24 22 17 11 4 4 2 0 20 14 15 10 5 2 2 3 4 4 2 8 6 6 4 4 3 1 5 3 6 4 8 12 7 7
18 19 20 21 22 23 23 22 21 21 22 22 20 12 4 1 9 7 4 17 17 16 10 3 5 5 3 4 2 5 6 6 8 6 7 4 5 6 6 9 6 7 6 8 7
21 23 24 25 26 25 24 23 22 22 22 20 15 7 0 4 5 8 14 19 18 17 10 5 5 6 3 4 5 3 3 6 6 4 4 5 6 5 8 9 4 9 10 10 9
23 25 27 29 29 27 26 25 21 20 22 18 9 3 2 14 5 8 20 23 21 19 5 10 9 3 1 4 4 3 5 7 6 5 7 6 7 10 14 4 8 10 9 8 9
25 28 29 31 32 29 28 25 22 21 16 8 3 4 7 8 4 11 21 16 16 15 13 6 2 4 3 3 7 4 3 2 5 2 6 10 9 9 8 7 11 10 9 9 8
27 29 31 34 34 29 25 25 20 9 2 2 3 3 9 6 7 18 22 11 18 16 13 6 4 3 2 3 4 3 3 5 8 6 3 8 6 13 7 8 9 8 9 10 7
27 30 33 37 38 26 26 16 8 7 4 2 1 2 6 5 6 15 28 20 5 4 2 3 3 2 2 3 5 5 4 5 5 4 4 6 10 8 7 6 9 9 8 7 7
26 30 35 38 32 24 24 6 8 5 7 5 4 5 7 4 9 8 24 17 6 4 7 3 3 9 12 8 5 1 3 6 6 9 6 8 10 13 10 6 9 9 7 8 8
25 30 35 38 20 23 22 8 8 9 12 15 21 17 29 10 5 6 21 10 7 10 6 1 11 11 7 6 8 8 8 9 9 6 5 7 11 11 9 9 10 14 11 11 7
23 27 32 36 11 27 6 15 23 23 5 11 7 7 7 16 13 9 11 6 8 9 11 11 7 5 11 9 8 9 9 6 8 4 4 4 10 8 4 2 2 4 13 9 10
21 24 28 34 6 24 4 26 25 12 4 7 5 6 4 6 6 23 14 9 5 15 6 9 17 16 7 8 10 13 8 10 5 2 3 3 6 7 7 5 4 8 9 9 9
21 23 24 22 12 11 13 26 23 3 6 2 4 6 5 6 3 6 24 7 15 7 8 9 6 9 14 20 8 9 8 6 4 2 2 3 2 6 1 5 7 7 7 8 8
20 21 23 20 20 8 22 24 1 3 8 6 1 2 5 2 5 4 11 3 6 6 5 14 6 4 7 7 13 4 4 6 5 2 4 8 8 6 4 7 6 5 7 9 8
19 19 18 17 8 20 24 10 2 4 4 3 3 4 2 4 4 2 4 12 8 10 16 10 16 8 5 5 2 4 6 2 3 2 6 3 3 10 6 7 16 18 13 10 8
18 19 14 19 19 12 9 2 7 2 6 4 5 5 5 4 6 7 6 5 9 4 3 12 6 16 9 18 7 7 9 6 6 4 5 1 6 6 4 5 7 12 14 11 8
19 16 10 25 12 4 4 4 6 5 3 7 9 1 4 2 3 1 8 7 9 16 11 7 7 5 5 10 13 6 5 7 4 1 1 5 7 8 5 6 13 15 14 12 9
17 6 10 15 7 0 3 8 5 3 5 5 3 3 3 7 7 6 3 5 2 1 14 6 11 10 6 5 4 11 8 3 2 3 5 5 5 8 5 6 9 14 14 12 9
6 3 6 8 7 1 6 6 5 9 11 3 3 5 4 4 4 4 4 4 5 7 6 2 12 9 4 8 10 3 5 3 5 6 5 2 6 6 12 13 17 13 13 14 12
4 3 2 14 2 2 10 6 5 11 12 7 4 2 5 6 5 4 7 1 3 4 5 5 4 10 21 4 6 17 15 8 5 5 5 3 6 3 8 14 13 14 12 12 12
2 4 9 12 4 5 6 12 8 11 21 6 9 7 2 5 5 8 7 2 6 3 4 7 3 3 1 4 4 4 4 7 5 3 7 5 5 4 5 9 11 14 13 13 12
1 3 2 1 3 6 10 13 14 12 13 10 12 20 20 15 8 5 3 3 3 4 8 6 2 3 4 4 10 5 9 11 11 10 7 9 5 3 2 7 8 12 13 13 13
1 3 1 5 7 12 8 8 13 10 10 11 8 16 20 15 12 9 6 5 1 1 2 5 8 8 9 13 15 18 20 18 15 17 14 17 15 14 8 10 14 12 13 15 14
2 2 3 6 13 15 14 4 11 15 11 14 13 17 13 16 20 13 8 5 5 0 4 4 3 7 17 13 15 19 19 20 23 20 21 14 8 5 10 4 9 15 18 17 18
7 8 3 7 9 11 9 13 17 12 10 17 16 14 13 20 18 18 7 5 8 8 6 4 4 3 16 6 12 9 20 17 11 10 10 14 14 10 4 9 15 16 20 21 19
Wind_Direction
13 9 5 0 357 355 354 351 348 346 344 343 341 339 333 323 314 285 238 226 195 181 164 154 179 301 302 300 65 87 72 223 243 299 283 310 197 334 182 114 36 129 154 190 167
8 1 356 353 353 352 351 347 343 341 339 339 338 337 331 327 313 259 255 200 210 191 175 169 163 140 11 327 354 98 133 220 211 250 164 323 315 182 109 42 319 47 55 145 160
10 4 358 355 353 350 347 344 341 338 336 335 335 334 332 327 307 250 306 185 181 192 190 185 158 145 153 123 217 183 204 220 278 227 180 161 294 321 135 199 217 192 172 178 165
354 353 352 350 345 342 338 336 335 334 332 330 331 331 330 325 295 264 314 181 187 182 184 189 168 152 162 199 201 196 237 235 261 256 207 198 227 310 200 231 212 169 175 174 167
2 358 354 349 343 337 332 326 323 323 326 326 325 326 342 291 252 254 243 177 182 183 193 191 191 178 199 213 163 206 253 254 263 280 237 172 223 229 250 241 206 196 185 170 166
4 359 354 349 344 338 332 324 315 314 318 319 317 311 219 263 245 246 187 179 182 183 204 186 221 204 243 238 168 247 242 264 269 247 234 204 238 141 255 243 204 179 194 186 184
359 355 350 346 341 335 329 323 313 309 312 309 296 234 231 239 217 238 194 194 191 189 171 213 246 172 138 302 298 276 318 323 252 227 228 182 276 226 241 198 246 203 212 210 208
354 351 349 347 341 335 329 326 317 306 304 288 238 169 245 260 222 225 197 203 198 203 212 228 177 166 160 293 349 325 28 350 298 168 237 152 258 257 257 202 244 235 207 207 217
351 351 350 347 344 336 331 325 319 312 314 186 159 169 264 298 218 219 197 193 200 216 239 201 118 168 39 110 356 326 230 220 312 215 151 175 248 257 221 196 233 214 200 208 129
353 352 351 349 348 342 339 330 33 71 72 104 254 358 257 252 224 199 202 205 165 176 190 141 65 163 77 117 218 212 230 238 233 285 169 227 258 269 257 223 232 218 200 145 145
352 353 353 351 351 357 354 5 9 355 14 260 241 259 282 275 265 206 192 185 141 143 178 221 173 213 210 203 220 259 254 269 268 262 205 230 243 252 254 257 251 235 167 158 153
352 352 353 351 0 11 46 67 36 302 297 270 252 252 253 282 308 270 174 173 157 199 138 216 237 229 212 222 236 256 263 271 273 242 193 255 252 248 236 235 221 217 159 161 148
349 349 350 350 353 9 59 30 345 346 260 289 237 234 235 183 222 249 178 164 184 173 187 201 241 183 203 236 233 241 234 243 240 289 308 296 285 251 240 200 69 117 153 145 155
345 345 349 354 0 343 344 340 342 344 306 275 234 248 186 169 231 205 203 164 194 206 164 227 237 264 226 240 220 254 212 235 256 59 252 48 285 255 246 175 128 129 139 148 151
335 339 343 354 330 321 320 327 333 133 329 226 199 155 143 178 266 205 194 186 199 170 163 218 196 217 232 239 197 232 208 202 207 224 348 197 233 271 93 195 181 185 166 161 152
337 336 337 340 329 331 335 331 60 59 252 304 180 163 114 230 299 6 177 117 167 207 225 221 227 179 214 244 212 193 109 41 40 72 297 214 174 276 218 200 162 171 181 165 158
337 333 321 310 284 328 334 335 101 192 311 287 357 25 300 217 225 189 155 195 184 200 226 246 242 252 231 262 111 107 96 325 328 357 229 160 162 249 260 219 181 176 175 173 160
322 320 315 285 292 318 339 46 234 266 271 10 359 310 233 190 243 200 169 198 238 200 161 220 286 221 221 213 184 184 155 163 215 206 252 314 231 251 270 277 159 161 151 156 156
324 330 300 296 276 267 81 201 219 216 324 0 341 279 284 261 299 239 200 194 200 203 205 189 246 260 211 198 177 181 188 181 105 352 28 236 286 311 67 83 134 146 155 162 164
335 316 277 6 233 70 106 227 236 258 42 11 281 292 293 350 2 21 309 356 294 325 226 217 269 247 277 161 180 179 160 98 38 210 237 273 263 245 226 180 162 162 166 164 158
341 358 332 22 131 118 225 233 302 308 339 301 310 303 310 332 320 325 301 21 13 342 13 311 233 235 160 199 186 147 175 143 145 156 197 272 257 216 200 185 181 179 170 166 165
2 312 189 15 14 235 244 234 227 285 309 275 276 284 266 297 261 251 232 334 4 3 15 25 301 237 240 229 217 213 199 156 147 218 214 181 269 327 206 192 173 169 172 166 166
282 271 275 309 254 255 271 275 283 281 273 273 289 280 246 221 265 231 238 323 66 73 56 359 355 326 96 320 249 215 193 204 134 108 195 173 263 2 104 149 169 166 170 169 159
331 294 301 189 209 231 250 262 272 239 247 247 272 276 273 268 228 254 280 346 65 102 151 87 285 288 273 303 335 259 214 201 197 227 217 227 272 312 151 179 181 176 168 170 165
188 253 317 287 281 248 236 256 259 269 256 263 265 239 271 266 252 233 208 236 51 55 155 172 240 268 289 302 301 282 272 208 208 218 213 243 236 245 222 198 196 178 166 168 172
187 239 239 274 281 290 276 233 248 263 255 269 257 271 305 276 262 249 197 193 187 286 157 184 273 269 282 305 313 297 290 230 222 218 232 235 241 263 243 136 159 182 175 180 179
228 251 255 278 273 268 242 250 258 259 250 238 255 284 268 275 279 260 207 172 168 164 166 165 175 222 265 265 331 279 255 241 220 224 224 225 246 252 238 200 198 189 186 185 182